N7DTY Weather Reports


time (UTC)temp
C
wind
direction
speed
KPH
gust
KPH
rain 1hr
cm
rain 24hr
cm
rain mn
cm
humidity
%
barometer
mb
20260905081548 12 258 0.0 1.6 0.00 0.00 0.00 91 1016.3
20260905080050 12 258 0.0 0.0 0.00 0.00 0.00 91 1016.3
20260905074546 12 258 0.0 0.0 0.00 0.00 0.00 91 1016.2
20260905073044 12 258 0.0 0.0 0.00 0.00 0.00 91 1016.4
20260905071543 12 258 0.0 0.0 0.00 0.00 0.00 90 1016.2
20260905070044 12 258 0.0 0.0 0.00 0.00 0.00 91 1016.1
20260905064543 12 258 0.0 0.0 0.00 0.00 0.00 90 1015.9
20260905063041 13 258 0.0 1.6 0.00 0.00 0.00 90 1015.8
20260905061538 13 258 0.0 0.0 0.00 0.00 0.00 91 1015.6
20260905060038 13 258 0.0 1.6 0.00 0.00 0.00 90 1015.7
20260905054549 13 258 0.0 1.6 0.00 0.00 0.00 90 1015.8
20260905053036 13 258 0.0 0.0 0.00 0.00 0.00 90 1015.8
20260905051536 13 258 0.0 1.6 0.00 0.00 0.00 90 1015.9
20260905050034 13 258 0.0 0.0 0.00 0.00 0.00 90 1015.9
20260905044535 13 258 0.0 0.0 0.00 0.00 0.00 89 1016.1
20260905043034 13 258 0.0 0.0 0.00 0.00 0.00 89 1016.0
20260905041533 13 258 0.0 0.0 0.00 0.00 0.00 88 1015.9
20260905040041 13 258 0.0 0.0 0.00 0.00 0.00 87 1015.9
20260905034533 13 258 0.0 0.0 0.00 0.00 0.00 85 1015.7
20260905033031 14 258 0.0 0.0 0.00 0.00 0.00 84 1015.6
20260905031530 14 258 0.0 0.0 0.00 0.00 0.00 82 1015.4
20260905030028 15 258 0.0 0.0 0.00 0.00 0.00 81 1015.2
20260905024526 15 258 0.0 0.0 0.00 0.00 0.00 80 1014.8
20260905023026 16 258 0.0 1.6 0.00 0.00 0.00 79 1014.8
20260905021525 16 256 0.0 0.0 0.00 0.00 0.00 80 1014.7
20260905020028 16 256 0.0 1.6 0.00 0.00 0.00 80 1014.7
20260905014521 17 257 0.0 6.4 0.00 0.00 0.00 77 1014.5
20260905013020 17 244 0.0 1.6 0.00 0.00 0.00 68 1014.4
20260905011520 18 346 1.6 4.8 0.00 0.00 0.00 66 1014.3
20260905010022 18 291 0.0 4.8 0.00 0.00 0.00 65 1014.3
20260905004517 18 22 0.0 4.8 0.00 0.00 0.00 66 1014.1
20260905003018 18 30 0.0 6.4 0.00 0.00 0.00 69 1014.1
20260905001516 18 290 0.0 4.8 0.00 0.00 0.00 67 1014.0
20260905000016 18 216 0.0 4.8 0.00 0.00 0.00 69 1014.0
20260904234516 18 167 0.0 3.2 0.00 0.00 0.00 68 1014.0
20260904233016 17 320 0.0 6.4 0.00 0.00 0.00 68 1013.9
20260904231514 17 331 1.6 8.0 0.00 0.00 0.00 70 1014.0
20260904230020 17 338 1.6 8.0 0.00 0.00 0.00 70 1014.1
20260904224522 18 100 3.2 9.7 0.00 0.00 0.00 69 1014.0
20260904223012 18 117 0.0 6.4 0.00 0.00 0.00 67 1014.0
20260904221516 18 163 1.6 6.4 0.00 0.00 0.00 64 1014.0
20260904220012 19 228 0.0 9.7 0.00 0.00 0.00 64 1014.1
20260904214517 19 51 0.0 6.4 0.00 0.00 0.00 68 1014.0
20260904213013 20 128 1.6 11.3 0.00 0.00 0.00 62 1013.9
20260904211509 18 186 3.2 8.0 0.00 0.00 0.00 69 1013.9
20260904210008 18 179 1.6 8.0 0.00 0.00 0.00 69 1013.9
20260904204509 20 319 0.0 6.4 0.00 0.00 0.00 66 1013.9
20260904203007 18 259 3.2 8.0 0.00 0.00 0.00 70 1013.8
20260904201503 17 154 4.8 11.3 0.00 0.00 0.00 73 1013.7
20260904200004 17 185 1.6 11.3 0.00 0.00 0.00 72 1013.7
20260904194609 18 242 0.0 11.3 0.00 0.00 0.00 74 1013.8
20260904193100 16 171 3.2 11.3 0.00 0.00 0.00 75 1013.9
20260904191559 17 177 1.6 6.4 0.00 0.00 0.00 77 1013.7
20260904190059 16 182 0.0 6.4 0.00 0.00 0.00 78 1013.7
20260904184557 17 259 3.2 6.4 0.00 0.00 0.00 74 1013.7
20260904183111 17 186 0.0 8.0 0.00 0.00 0.00 77 1013.7
20260904181553 16 160 0.0 8.0 0.00 0.00 0.00 78 1013.5
20260904180051 16 40 0.0 9.7 0.00 0.00 0.00 80 1013.5
20260904174548 15 173 1.6 11.3 0.00 0.00 0.00 81 1013.6
20260904173045 15 296 1.6 12.9 0.00 0.00 0.00 84 1013.6
20260904171543 14 174 1.6 8.0 0.00 0.00 0.00 85 1013.5
20260904170039 13 95 3.2 8.0 0.00 0.00 0.00 86 1013.6
20260904164536 13 157 1.6 4.8 0.00 0.00 0.00 87 1013.4
20260904163034 13 175 3.2 8.0 0.00 0.00 0.00 88 1013.4
20260904161531 13 125 0.0 3.2 0.00 0.00 0.00 90 1013.3
20260904160027 13 125 1.6 4.8 0.00 0.00 0.00 90 1013.3
20260904154525 12 125 0.0 1.6 0.00 0.00 0.00 91 1013.2
20260904153023 12 125 0.0 0.0 0.00 0.00 0.00 92 1013.2
20260904151521 12 125 0.0 0.0 0.00 0.00 0.00 92 1013.0
20260904150025 11 125 0.0 0.0 0.00 0.00 0.00 92 1012.9
20260904144513 11 125 0.0 0.0 0.00 0.00 0.00 92 1012.6
20260904143011 11 125 0.0 0.0 0.00 0.00 0.00 92 1012.5
20260904141507 11 125 0.0 0.0 0.00 0.00 0.00 92 1012.3
20260904140005 11 125 0.0 0.0 0.00 0.00 0.00 92 1012.1
20260904134504 11 125 0.0 0.0 0.00 0.00 0.00 92 1011.9
20260904133002 11 125 0.0 0.0 0.00 0.00 0.00 91 1011.9
20260904131503 11 125 0.0 0.0 0.00 0.00 0.00 92 1011.7
20260904130107 11 125 0.0 0.0 0.00 0.00 0.00 92 1011.8
20260904124607 11 125 0.0 1.6 0.00 0.00 0.00 92 1011.8
20260904123058 11 125 0.0 0.0 0.00 0.00 0.00 92 1011.7
20260904121557 11 125 0.0 0.0 0.00 0.00 0.00 92 1011.4
20260904120108 11 125 0.0 0.0 0.00 0.00 0.00 92 1011.3
20260904114552 11 125 0.0 0.0 0.00 0.00 0.00 92 1011.0
20260904113051 11 125 0.0 1.6 0.00 0.00 0.00 92 1011.0
20260904111551 11 121 0.0 0.0 0.00 0.00 0.00 92 1010.9
20260904110053 11 121 0.0 0.0 0.00 0.00 0.00 92 1010.8
20260904104549 10 121 0.0 0.0 0.00 0.00 0.00 92 1010.9
20260904103048 10 121 0.0 0.0 0.00 0.00 0.00 92 1010.7
20260904101547 10 121 0.0 0.0 0.00 0.00 0.00 92 1010.5
20260904100049 10 121 0.0 0.0 0.00 0.00 0.00 92 1010.6
20260904094546 10 121 0.0 0.0 0.00 0.00 0.00 92 1010.8
20260904093046 10 121 0.0 0.0 0.00 0.00 0.00 91 1010.6
20260904091545 10 121 0.0 0.0 0.00 0.00 0.00 91 1010.6
20260904090043 10 121 0.0 0.0 0.00 0.00 0.00 90 1010.7
20260904084542 10 121 0.0 0.0 0.00 0.00 0.00 90 1010.6
20260904083041 10 121 0.0 0.0 0.00 0.00 0.00 90 1010.6